Regional Weather Roundup
Issued by NWS Little Rock, AR

Home | Current Version | Previous Version | Text Only | Print | Product List | Glossary Off
Versions: 1 2 3 4 5 6 7 8 9 10 11 12 13 14 15 16 17 18 19 20 21 22 23 24 25 26 27 28 29 30 31 32

000
ASUS44 KLZK 161812
RWRLZK

WEATHER ROUNDUP FOR ARKANSAS
NATIONAL WEATHER SERVICE LITTLE ROCK AR
1200 PM CST MON JAN 16 2017

NOTE: "FAIR" INDICATES FEW OR NO CLOUDS BELOW 12,000 FEET WITH NO
SIGNIFICANT WEATHER AND/OR OBSTRUCTIONS TO VISIBILITY.

ARZ001-003-010-029-161900-
NORTHWEST ARKANSAS

CITY           SKY/WX    TMP DP  RH WIND       PRES   REMARKS
FAYETTEVILLE   PTSUNNY   60  57  89 S13G22    29.92F
6HR MIN TEMP:  56; 6HR MAX TEMP:  61; 6HR PCP: TRACE;

FORT SMITH     CLOUDY    56  53  90 NE7       29.93F FOG
6HR MIN TEMP:  49; 6HR MAX TEMP:  56; 6HR PCP: TRACE;

HARRISON       LGT RAIN  57  57 100 S14       29.94F FOG
6HR MIN TEMP:  45; 6HR MAX TEMP:  57; 6HR PCP:  0.30;

BENTONVILLE    CLOUDY   N/A N/A N/A SW9       29.91F
ROGERS         CLOUDY    61  55  81 S13G20    29.92F
6HR MIN TEMP:  55; 6HR MAX TEMP:  61;

SILOAM SPGS    PTSUNNY   61  54  77 SW14      29.91F
6HR MIN TEMP:  55; 6HR MAX TEMP:  61;

HIGHFILL       CLOUDY    60  55  83 S18G25    29.90F
6HR MIN TEMP:  55; 6HR MAX TEMP:  61;

SPRINGDALE     CLOUDY    59  57  94 S10       29.94F
$$

ARZ004-005-016-161900-
NORTH CENTRAL ARKANSAS

CITY           SKY/WX    TMP DP  RH WIND       PRES   REMARKS
BATESVILLE     CLOUDY    55  54  94 SE5       30.02F VSB 1/4
6HR MIN TEMP:  45; 6HR MAX TEMP:  55; 6HR PCP:  0.02;

FLIPPIN        CLOUDY    52  48  87 E6        29.94F
6HR MIN TEMP:  43; 6HR MAX TEMP:  52; 6HR PCP:  0.01;

MTN HOME       CLOUDY    52  52 100 SE6       29.96F FOG
6HR MIN TEMP:  43; 6HR MAX TEMP:  51; 6HR PCP:  0.01;

$$

ARZ040-041-161900-
WEST CENTRAL ARKANSAS

CITY           SKY/WX    TMP DP  RH WIND       PRES   REMARKS
MENA           CLOUDY    64  63  94 SW7       29.95F
MOUNT IDA      LGT RAIN  64  61  90 VRB3      29.92F
6HR MIN TEMP:  55; 6HR MAX TEMP:  64; 6HR PCP:  0.15;

$$

ARZ009-017-025-026-028-161900-
NORTHEAST ARKANSAS

CITY           SKY/WX    TMP DP  RH WIND       PRES   REMARKS
CORNING        LGT RAIN  55  55 100 S3        30.06S
JONESBORO      CLOUDY    60  58  92 S13       30.04F
6HR MIN TEMP:  46; 6HR MAX TEMP:  60; 6HR PCP:  0.01;

NEWPORT        CLOUDY    60  59  96 S14       30.03F
6HR MIN TEMP:  45; 6HR MAX TEMP:  60;

WALNUT RIDGE   CLOUDY    57  54  88 S15       30.04F
6HR MIN TEMP:  45; 6HR MAX TEMP:  57;

BLYTHEVILLE    CLOUDY    64  59  83 S14G21    30.06F
6HR MIN TEMP:  49; 6HR MAX TEMP:  64; 6HR PCP: TRACE;

$$

ARZ022-023-033-042-044-161900-
CENTRAL ARKANSAS

CITY           SKY/WX    TMP DP  RH WIND       PRES   REMARKS
LITTLE ROCK    CLOUDY    63  63 100 SE9       30.00F
6HR MIN TEMP:  46; 6HR MAX TEMP:  63; 6HR PCP:  0.01;

N LITTLE ROCK    N/A     61  60  97 S9G17     30.02F
6HR MIN TEMP:  46; 6HR MAX TEMP:  61;

JACKSONVILLE   CLOUDY    63  63 100 S13G23    29.99F
6HR MIN TEMP:  47; 6HR MAX TEMP:  63; 6HR PCP:  0.01;

SEARCY         CLOUDY    61  61 100 S14       30.03F
6HR MIN TEMP:  46; 6HR MAX TEMP:  61; 6HR PCP: TRACE;

HOT SPRINGS    CLOUDY    64  62  93 S8        29.98F
6HR MIN TEMP:  51; 6HR MAX TEMP:  64; 6HR PCP:  0.02;

RUSSELLVILLE   CLOUDY    58  57  97 E7        29.94F
6HR MIN TEMP:  47; 6HR MAX TEMP:  60; 6HR PCP:  0.05;

CLINTON        CLOUDY    55  55 100 VRB5      29.99F FOG
$$

ARZ036-161900-
EAST ARKANSAS

CITY           SKY/WX    TMP DP  RH WIND       PRES   REMARKS
WEST MEMPHIS   CLOUDY    64  62  93 S15       30.05F
6HR MIN TEMP:  52; 6HR MAX TEMP:  64; 6HR PCP:  0.06;

$$

ARZ050-053-066-070-073-161900-
SOUTHWEST ARKANSAS

CITY           SKY/WX    TMP DP  RH WIND       PRES   REMARKS
ARKADELPHIA    CLOUDY    65  63  93 S8        29.99F
6HR MIN TEMP:  52; 6HR MAX TEMP:  65; 6HR PCP:  0.02;

CAMDEN         CLOUDY    64  61  88 S10       30.01F
TEXARKANA      CLOUDY    67  65  93 S12       29.97F
6HR MIN TEMP:  62; 6HR MAX TEMP:  67; 6HR PCP:  0.03;

EL DORADO      CLOUDY    66  64  93 S10       30.02F
6HR MIN TEMP:  60; 6HR MAX TEMP:  66; 6HR PCP:  0.05;

DE QUEEN       LGT RAIN  61  61 100 W6        29.94F FOG
6HR MIN TEMP:  59; 6HR MAX TEMP:  66; 6HR PCP:  0.39;

$$

ARZ056-057-069-161900-
SOUTHEAST ARKANSAS

CITY           SKY/WX    TMP DP  RH WIND       PRES   REMARKS
PINE BLUFF     CLOUDY    64  62  93 S17G23    30.03F
6HR MIN TEMP:  48; 6HR MAX TEMP:  64; 6HR PCP:  0.02;

STUTTGART      CLOUDY    63  55  77 S14       30.05F
6HR MIN TEMP:  48; 6HR MAX TEMP:  63; 6HR PCP:  0.02;

MONTICELLO     CLOUDY    66  62  87 S10       30.05F
6HR MIN TEMP:  56; 6HR MAX TEMP:  66; 6HR PCP: TRACE;


$$






USA.gov is the U.S. government's official web portal to all federal, state and local government web resources and services.